Location: Favalello
(42.2939°N, 9.2706°E)
Time: 06:11:08
(UTC+00:00)

CZ-4 R/B - Pass Details

Date: 06 December 2019
Orbit: 579 x 590 km, 97.8° (Epoch: 17 January)

Event Time Altitude Azimuth Distance (km) Brightness Sun altitude
Rises 17:24:00 0° 158° (SSE) 2,805 7.9 -16.7°
Reaches altitude 10° 17:26:10 10° 156° (SSE) 1,910 7.0 -17.1°
Maximum altitude 17:30:15 64° 75° (ENE) 655 4.4 -17.8°
Drops below altitude 10° 17:34:24 10° 354° (N) 1,927 7.0 -18.6°
Sets 17:36:35 0° 351° (N) 2,833 7.9 -19.0°
